Content
SEND FEEDBACK

Daily
Averages
Monthly
Summary
United States of America

GLENS FALLS, NEW YORK


Home > North America > United States > New York
Elevation: 321 feet     Latitude: 43 21N     Longitude: 073 37W

WEATHER
 
SELECT A DAY
Number of Records: 212,989;   Date Range: 1/1/95 - 7/27/14
 
SHARE

PRINT THIS DATA

[ ← Previous Day ]
WEATHER ALMANAC - FEBRUARY 13, 2013
[ Next Day → ]
[ °C ]   °F
Weather ElementAverageHighLow
Temperature30 °F35.1 °F (10:53 am)23 °F (8:53 pm)
Dewpoint20.9 °F24.1 °F (7:53 am)18 °F (8:53 pm)
Humidity70 %88 % (11:53 pm)52 % (2:53 pm)
Barometer29.83 in29.89 in (3:53 am)29.77 in (5:53 pm)
Wind Speed3.9 mph9.2 mph (1:53 pm)
Weather ElementAverage
Visibility10 mi
Wind DirectionESE (127.4 °)

Weather ElementTotal
Precipitation---
Heating Degree Days36 (Base 65)
Averaged from 23 records on February 13, 2013
WEATHER CONDITIONS BREAKOUT
WIND DIRECTION BREAKOUT
WEATHER BY HOUR - FEBRUARY 13, 2013
[ °C ]   °F
Local TimeTemperatureDewpointHumidityBarometerVisibilityWind DirectionWind SpeedGust SpeedPrecipitationEventsConditions
1:53 AM28.9 °F21.9 °F75 %29.88 in10.0 miSSW (200°)6.9 mphOvercast
2:53 AM28.9 °F23.0 °F78 %29.88 in10.0 miSSW (200°)4.6 mphOvercast
3:53 AM30.9 °F23.0 °F72 %29.89 in10.0 miSW (220°)5.8 mphOvercast
4:53 AM30.9 °F23.0 °F72 %29.89 in10.0 miSW (230°)4.6 mphOvercast
5:53 AM28.9 °F23.0 °F78 %29.88 in10.0 miSSW (210°)4.6 mphScattered Clouds
6:53 AM26.1 °F21.9 °F84 %29.88 in10.0 miCalmPartly Cloudy
7:53 AM30.9 °F24.1 °F76 %29.89 in10.0 miSW (230°)4.6 mphOvercast
8:53 AM32.0 °F24.1 °F73 %29.88 in10.0 miWSW (240°)4.6 mphOvercast
9:53 AM33.1 °F23.0 °F66 %29.87 in10.0 miSW (230°)6.9 mphOvercast
10:53 AM35.1 °F21.9 °F59 %29.86 in10.0 miVariable3.5 mphOvercast
11:53 AM35.1 °F21.0 °F57 %29.84 in10.0 miSW (220°)6.9 mphOvercast
12:53 PM35.1 °F19.9 °F54 %29.83 in10.0 miSW (220°)4.6 mphOvercast
1:53 PM35.1 °F19.9 °F54 %29.81 in10.0 miSouth (170°)9.2 mphOvercast
2:53 PM35.1 °F19.0 °F52 %29.79 in10.0 miSW (220°)8.1 mphOvercast
3:53 PM35.1 °F19.0 °F52 %29.78 in10.0 miSouth (170°)8.1 mphOvercast
4:53 PM34.0 °F19.0 °F54 %29.78 in10.0 miSouth (170°)5.8 mphScattered Clouds
5:53 PM28.9 °F19.0 °F67 %29.77 in10.0 miCalmClear
6:53 PM26.1 °F19.9 °F78 %29.78 in10.0 miCalmClear
7:53 PM26.1 °F19.0 °F75 %29.77 in10.0 miCalmClear
8:53 PM23.0 °F18.0 °F81 %29.78 in10.0 miCalmClear
9:53 PM23.0 °F19.0 °F85 %29.79 in10.0 miCalmClear
10:53 PM25.0 °F19.9 °F81 %29.77 in10.0 miCalmClear
11:53 PM23.0 °F19.9 °F88 %29.77 in10.0 miCalmClear
Hourly data recorded from KGFL, located miles away from Glens Falls, New York







STORIES FROM OUR PARTNERS